Погода в Охотниково

Россия / Республика Крым     45°14′21″N   33°35′38″E
темп.,
°C
ветер,
м/с
пор.,
м/с
влажн.,
%
обл.,
%
осадки,
мм/ч
давл.,
гПа
погр.,
м
5 марта, пт
пт500:00+6ююз1014790 0.0 1017621
03:00+6ююз9138112 0.0 1017581
06:00+7ююз9138152 0.0 1014525
09:00+8ююз10137659 0.0 1013652
12:00+10ююз1013720 0.0 1013646
15:00+11юз911780 0.0 1012642
18:00+9юз79821 0.0 1013489
21:00+7юз478826 0.0 1014170
6 марта, сб
сб600:00+7ююз588871 0.0 1013186
03:00+8ююз599136 0.0 1013180
06:00+8юз58880 0.0 1013153
09:00+7сз6107644 0.0 1015396
12:00+5ссз81175100 0.0 1018555
15:00+5с81060100 0.0 10201065
18:00+4с6845100 0.0 10231434
21:00+2с6104882 0.0 1026638
7 марта, вс
вс700:00−1ссв47590 0.0 1029286
03:00−2с23600 0.0 1029115
06:00−2ююв01590 0.0 102967
09:00+1ююз23460 0.0 1029368
12:00+5зюз56382 0.0 10281764
15:00+5зюз774442 0.0 10261716
18:00+4зюз674973 0.0 10241408
21:00+3юз585447 0.0 1024371
8 марта, пн
пн800:00+3юз69580 0.0 1022385
03:00+3юз69640 0.0 1021410
06:00+3юз596951 0.0 1019393
09:00+5юз786473 0.1 10181265
12:00+7юз8106399 0.2 10181292
15:00+7юз9106699 0.5 10161255
18:00+6юз796999 0.3 10151113
21:00+6юз697297 0.6 1016435
9 марта, вт
вт900:00+6юз7974100 0.3 1015784
03:00+6зюз71079100 1.6 1014707
06:00+4з348264 1.1 1014208
09:00+5ссз577849 1.3 1015337
12:00+7ссз66610 0.0 10161017
15:00+6ссз775219 0.0 10171079
18:00+4ссз674774 0.0 10181272
21:00+2ссз485965 0.0 1020476